Port Lavaca, TX

7:42 PM CDT on April 22, 2018 (GMT -0500)
Port Lavaca

Weather History for KPKV - March, 2013

Change the Weather History Date:

Monday, March 4, 2013

  Actual Average (KVCT) Record (KVCT)
Temperature  
Mean Temperature 66 °F -  
Max Temperature 75 °F 71 °F 89 °F (1925)
Min Temperature 58 °F 50 °F 21 °F (2002)
Cooling Degree Days 2    
Growing Degree Days 16 (Base 50)    
Moisture  
Dew Point 57 °F    
Average Humidity 73    
Maximum Humidity 86    
Minimum Humidity 54    
Precipitation  
Precipitation 0.00 in - - ()
Sea Level Pressure  
Sea Level Pressure 29.88 in    
Wind  
Wind Speed 19 mph (South)    
Max Wind Speed 34 mph    
Max Gust Speed 46 mph    
Visibility 9 miles    
Events      
Averages and records for this station are not official NWS values.
T = Trace of Precipitation, MM = Missing Value Source: NWS Daily Summary

Daily Weather History Graph

Daily Weather History Graph

Search for Another Location

Airport or City:

Astronomy

Mar. 04, 2013 Rise Set
Actual Time 6:48 AM CST 6:28 PM CST
Civil Twilight 6:24 AM CST 6:52 PM CST
Nautical Twilight 5:57 AM CST 7:19 PM CST
Astronomical Twilight 5:29 AM CST 7:47 PM CST
Moon 12:39 AM CST (3/4) 11:31 AM CST (3/4)
Length of Visible Light 12h 27m
Length of Day
11h 40m
Waning Gibbous, 52% of the Moon is Illuminated
Mar 4
Waning Gibbous
Mar 4
Last Quarter
Mar 11
New
Mar 19
First Quarter
Mar 27
Full

Hourly Weather History & Observations

Time (CST) Temp. Dew Point Humidity Pressure Visibility Wind Dir Wind Speed Gust Speed Precip Events Conditions
12:15 AM 59.7 °F 52.0 °F 76% 30.01 in 10.0 mi South 12.7 mph - N/A   Clear
12:35 AM 59.5 °F 52.0 °F 76% 30.00 in 10.0 mi South 12.7 mph 18.4 mph N/A   Clear
12:55 AM 59.7 °F 52.0 °F 76% 30.00 in 10.0 mi South 12.7 mph - N/A   Clear
1:15 AM 59.9 °F 52.2 °F 76% 29.99 in 10.0 mi South 12.7 mph - N/A   Clear
2:15 AM 59.2 °F 52.9 °F 80% 29.97 in 10.0 mi South 11.5 mph - N/A   Clear
2:35 AM 59.0 °F 53.1 °F 81% 29.96 in 10.0 mi South 10.4 mph - N/A   Clear
2:55 AM 58.5 °F 53.4 °F 83% 29.95 in 10.0 mi South 9.2 mph - N/A   Clear
3:35 AM 58.3 °F 53.8 °F 85% 29.95 in 10.0 mi South 9.2 mph - N/A   Clear
3:55 AM 58.3 °F 53.6 °F 84% 29.94 in 10.0 mi South 10.4 mph - N/A   Clear
4:15 AM 58.5 °F 53.6 °F 84% 29.93 in 10.0 mi South 11.5 mph - N/A   Clear
4:35 AM 59.0 °F 54.1 °F 84% 29.93 in 10.0 mi South 12.7 mph - N/A   Clear
4:55 AM 59.4 °F 54.5 °F 84% 29.92 in 10.0 mi South 11.5 mph - N/A   Clear
5:15 AM 59.9 °F 54.7 °F 83% 29.92 in 10.0 mi South 13.8 mph - N/A   Clear
5:35 AM 60.3 °F 54.9 °F 82% 29.93 in 10.0 mi South 15.0 mph 20.7 mph N/A   Clear
6:15 AM 60.4 °F 55.4 °F 83% 29.93 in 10.0 mi South 12.7 mph - N/A   Clear
6:35 AM 60.1 °F 55.6 °F 85% 29.93 in 10.0 mi South 12.7 mph - N/A   Clear
6:55 AM 59.9 °F 55.6 °F 86% 29.93 in 10.0 mi South 13.8 mph - N/A   Clear
7:15 AM 60.6 °F 56.1 °F 85% 29.93 in 10.0 mi South 12.7 mph - N/A   Clear
7:35 AM 61.5 °F 56.8 °F 85% 29.93 in 10.0 mi South 13.8 mph - N/A   Clear
7:55 AM 63.1 °F 57.4 °F 81% 29.93 in 10.0 mi South 17.3 mph 23.0 mph N/A   Clear
8:15 AM 64.8 °F 58.1 °F 79% 29.93 in 10.0 mi South 21.9 mph 26.5 mph N/A   Clear
8:35 AM 66.2 °F 58.5 °F 76% 29.93 in 10.0 mi South 24.2 mph 32.2 mph N/A   Clear
8:55 AM 67.3 °F 58.5 °F 73% 29.93 in 7.0 mi South 31.1 mph 38.0 mph N/A   Clear
9:15 AM 68.4 °F 58.3 °F 70% 29.93 in 5.0 mi South 32.2 mph 41.4 mph N/A   Haze
9:35 AM 68.9 °F 58.1 °F 68% 29.93 in 3.0 mi SSW 32.2 mph 42.6 mph N/A   Haze
9:55 AM 70.5 °F 58.1 °F 65% 29.93 in 5.0 mi SSW 34.5 mph 39.1 mph N/A   Haze
10:15 AM 70.9 °F 57.7 °F 63% 29.93 in 3.0 mi SSW 32.2 mph 39.1 mph N/A   Haze
10:35 AM 71.4 °F 57.9 °F 62% 29.92 in 3.0 mi South 28.8 mph 46.0 mph N/A   Haze
10:55 AM 71.6 °F 57.2 °F 60% 29.93 in 2.5 mi SSW 34.5 mph 42.6 mph N/A   Haze
11:15 AM 72.5 °F 56.7 °F 57% 29.93 in 3.0 mi SSW 31.1 mph 43.7 mph N/A   Haze
11:35 AM 72.7 °F 56.8 °F 57% 29.92 in 4.0 mi South 32.2 mph 39.1 mph N/A   Haze
11:55 AM 73.8 °F 57.6 °F 57% 29.90 in 7.0 mi South 26.5 mph 36.8 mph N/A   Clear
12:15 PM 74.1 °F 57.2 °F 55% 29.89 in 10.0 mi SSW 27.6 mph 35.7 mph N/A   Clear
12:35 PM 74.5 °F 56.8 °F 54% 29.88 in 10.0 mi South 29.9 mph 38.0 mph N/A   Clear
12:55 PM 74.3 °F 57.2 °F 55% 29.87 in 10.0 mi South 26.5 mph 35.7 mph N/A   Clear
1:15 PM 74.7 °F 57.4 °F 55% 29.86 in 10.0 mi SSW 25.3 mph 38.0 mph N/A   Clear
1:35 PM 74.7 °F 57.4 °F 55% 29.84 in 7.0 mi South 28.8 mph 34.5 mph N/A   Clear
1:55 PM 74.8 °F 57.2 °F 54% 29.83 in 10.0 mi South 28.8 mph 39.1 mph N/A   Clear
2:15 PM 75.2 °F 57.7 °F 54% 29.82 in 10.0 mi South 25.3 mph 33.4 mph N/A   Clear
2:35 PM 74.3 °F 58.1 °F 57% 29.81 in 10.0 mi South 27.6 mph 35.7 mph N/A   Clear
2:55 PM 74.5 °F 58.3 °F 57% 29.81 in 10.0 mi South 27.6 mph 38.0 mph N/A   Clear
3:15 PM 74.1 °F 58.5 °F 58% 29.81 in 10.0 mi South 25.3 mph 35.7 mph N/A   Clear
3:35 PM 73.6 °F 58.6 °F 59% 29.80 in 7.0 mi South 27.6 mph 35.7 mph N/A   Clear
3:55 PM 73.4 °F 58.5 °F 59% 29.80 in 10.0 mi South 27.6 mph 36.8 mph N/A   Clear
4:15 PM 73.0 °F 58.5 °F 60% 29.80 in 10.0 mi South 27.6 mph 34.5 mph N/A   Clear
4:35 PM 72.5 °F 58.8 °F 62% 29.80 in 10.0 mi South 24.2 mph 36.8 mph N/A   Clear
4:55 PM 72.5 °F 59.0 °F 62% 29.80 in 10.0 mi South 27.6 mph 31.1 mph N/A   Clear
5:15 PM 71.6 °F 58.6 °F 64% 29.80 in 10.0 mi South 25.3 mph 34.5 mph N/A   Clear
5:35 PM 70.3 °F 59.4 °F 68% 29.80 in 10.0 mi South 23.0 mph 29.9 mph N/A   Clear
5:55 PM 69.8 °F 59.5 °F 70% 29.80 in 10.0 mi South 19.6 mph 29.9 mph N/A   Clear
6:15 PM 68.4 °F 59.9 °F 74% 29.79 in 10.0 mi South 21.9 mph 27.6 mph N/A   Clear
6:35 PM 67.5 °F 59.9 °F 77% 29.79 in 10.0 mi South 18.4 mph 26.5 mph N/A   Clear
6:55 PM 67.1 °F 60.1 °F 78% 29.80 in 10.0 mi South 23.0 mph 26.5 mph N/A   Clear
7:15 PM 66.4 °F 60.1 °F 80% 29.80 in 10.0 mi South 16.1 mph 24.2 mph N/A   Clear
7:35 PM 66.2 °F 60.3 °F 81% 29.81 in 10.0 mi South 18.4 mph 21.9 mph N/A   Clear
7:55 PM 66.2 °F 60.4 °F 82% 29.81 in 10.0 mi South 19.6 mph 23.0 mph N/A   Clear
8:15 PM 66.2 °F 60.4 °F 82% 29.81 in 10.0 mi South 17.3 mph 26.5 mph N/A   Clear
8:35 PM 66.4 °F 60.4 °F 81% 29.81 in 10.0 mi South 20.7 mph 29.9 mph N/A   Clear
8:55 PM 66.4 °F 60.8 °F 82% 29.81 in 10.0 mi South 21.9 mph 28.8 mph N/A   Clear
9:15 PM 66.6 °F 60.8 °F 82% 29.81 in 10.0 mi South 21.9 mph 28.8 mph N/A   Clear
9:35 PM 66.6 °F 60.8 °F 82% 29.81 in 10.0 mi South 25.3 mph 31.1 mph N/A   Clear
9:55 PM 66.2 °F 60.8 °F 83% 29.81 in 10.0 mi South 23.0 mph 32.2 mph N/A   Clear
10:15 PM 66.4 °F 61.0 °F 83% 29.81 in 10.0 mi South 21.9 mph 33.4 mph N/A   Clear
10:55 PM 65.8 °F 61.0 °F 84% 29.81 in 10.0 mi South 24.2 mph 34.5 mph N/A   Clear
11:35 PM 65.3 °F 61.0 °F 86% 29.81 in 10.0 mi South 21.9 mph 28.8 mph N/A   Clear
11:55 PM 65.3 °F 61.0 °F 86% 29.81 in 7.0 mi South 19.6 mph 32.2 mph N/A   Clear